Погода в Геленджике

Россия / Краснодарский край     44°33′40″N   38°04′36″E
темп.,
°C
ветер,
м/с
пор.,
м/с
влажн.,
%
обл.,
%
осадки,
мм/ч
давл.,
гПа
погр.,
м
22 января, пт
пт2200:00+8ю11126976 0.0 10301171
03:00+8ю11136838 0.0 10301241
06:00+8ю11137476 0.1 10291206
09:00+8ю11127773 0.1 10291096
12:00+8ю9117688 0.1 1029975
15:00+8ю8107155 0.1 1027903
18:00+8ююв810700 0.0 1027743
21:00+9ююв79694 0.0 1026682
23 января, сб
сб2300:00+9ююв796766 0.0 1026687
03:00+9ююв796876 0.0 1025705
06:00+9ююв89710 0.0 1024755
09:00+9ююв797033 0.0 1024579
12:00+9ююв787446 0.0 1024556
15:00+9ююв787264 0.0 1023518
18:00+9юв68700 0.0 1022461
21:00+9юв68710 0.0 1022404
24 января, вс
вс2400:00+9вюв57710 0.0 1021375
03:00+8вюв566813 0.0 1020270
06:00+9вюв585695 0.0 1019377
09:00+9вюв585297 0.0 1019423
12:00+10юв61160100 0.0 1017579
15:00+10юв81272100 0.0 1016593
18:00+10юв71074100 0.0 1017527
21:00+10ююв6879100 0.0 1017449
25 января, пн
пн2500:00+9юв6880100 0.0 1017376
03:00+10юв6978100 0.0 1017381
06:00+10юв7107750 0.0 1017406
09:00+10юв7117748 0.0 1017446
12:00+10юв7107591 0.0 1016424
15:00+10юв8117595 0.0 1014429
18:00+10юв91377100 0.0 1013468
21:00+10юв91377100 0.0 1014553
26 января, вт
вт2600:00+11ююв11157466 0.0 1013509
03:00+11ююв10157483 0.0 1014558
06:00+11ююв111674100 0.0 1013457
09:00+11ююв142167100 0.0 1012528
12:00+11ююв142068100 0.0 1012593
15:00+10зюз71083100 0.0 1013620
18:00+9зюз5680100 0.1 1016716
21:00+9юз3376100 0.1 1017589